Dania, FL

5:36 AM EST on February 26, 2017 (GMT -0500)
Fort Lauderdale-Hollywood International

Weather History for KFLL - January, 2014

Change the Weather History Date:

Tuesday, January 28, 2014

  Actual Average Record
Temperature  
Mean Temperature 71 °F 70 °F  
Max Temperature 80 °F 77 °F 86 °F (1959)
Min Temperature 62 °F 62 °F 30 °F (1940)
Degree Days  
Heating Degree Days 0 1  
Month to date heating degree days 71 44  
Since 1 July heating degree days 75 76  
Cooling Degree Days 6 6  
Month to date cooling degree days 112 154  
Year to date cooling degree days 112 154  
Growing Degree Days 20 (Base 50)    
Moisture  
Dew Point 66 °F    
Average Humidity 82    
Maximum Humidity 100    
Minimum Humidity 64    
Precipitation  
Precipitation 0.00 in 0.17 in 1.22 in (2016)
Month to date precipitation 1.82 3.10  
Year to date precipitation 1.82 3.10  
Snow  
Snow 0.00 in - - ()
Month to date snowfall 0.0  
Since 1 July snowfall 0.0  
Snow Depth 0.00 in    
Sea Level Pressure  
Sea Level Pressure 30.03 in    
Wind  
Wind Speed 5 mph (SSE)    
Max Wind Speed 17 mph    
Max Gust Speed 22 mph    
Visibility 10 miles    
Events      
T = Trace of Precipitation, MM = Missing Value Source: NWS Daily Summary

Daily Weather History Graph

Daily Weather History Graph

Search for Another Location

Airport or City:

Trip Planner

Search our weather history database for the weather conditions in past years. The results will help you decide how hot, cold, wet, or windy it might be!

Date:

Astronomy

Jan. 28, 2014 Rise Set
Actual Time 7:06 AM EST 6:00 PM EST
Civil Twilight 6:42 AM EST 6:25 PM EST
Nautical Twilight 6:14 AM EST 6:52 PM EST
Astronomical Twilight 5:47 AM EST 7:20 PM EST
Moon 4:42 AM EST (1/28) 3:52 PM EST (1/28)
Length of Visible Light 11h 43m
Length of Day
10h 54m
Waning Crescent, 7% of the Moon is Illuminated
Jan 28
Waning Crescent
Jan 30
New
Feb 6
First Quarter
Feb 14
Full
Feb 22
Last Quarter

Hourly Weather History & Observations

Time (EST) Temp. Dew Point Humidity Pressure Visibility Wind Dir Wind Speed Gust Speed Precip Events Conditions
12:53 AM 66.9 °F 64.0 °F 90% 30.04 in 10.0 mi Calm Calm - N/A   Scattered Clouds
1:53 AM 64.9 °F 64.0 °F 97% 30.04 in 10.0 mi Calm Calm - N/A   Mostly Cloudy
2:53 AM 64.0 °F 63.0 °F 96% 30.02 in 10.0 mi Calm Calm - N/A   Partly Cloudy
3:53 AM 63.0 °F 63.0 °F 100% 30.02 in 9.0 mi Calm Calm - N/A   Partly Cloudy
4:53 AM 62.1 °F 62.1 °F 100% 30.02 in 7.0 mi Calm Calm - N/A   Partly Cloudy
5:53 AM 63.0 °F 63.0 °F 100% 30.02 in 8.0 mi Calm Calm - N/A   Clear
6:53 AM 64.0 °F 63.0 °F 96% 30.04 in 8.0 mi Calm Calm - N/A   Partly Cloudy
7:53 AM 64.9 °F 64.0 °F 97% 30.05 in 9.0 mi Calm Calm - N/A   Partly Cloudy
8:53 AM 70.0 °F 66.0 °F 87% 30.07 in 10.0 mi Calm Calm - N/A   Partly Cloudy
9:53 AM 73.9 °F 64.9 °F 73% 30.09 in 10.0 mi Variable 3.5 mph - N/A   Clear
10:53 AM 77.0 °F 64.9 °F 66% 30.08 in 10.0 mi SE 8.1 mph - N/A   Partly Cloudy
11:53 AM 78.1 °F 66.0 °F 66% 30.06 in 10.0 mi SE 11.5 mph 16.1 mph N/A   Scattered Clouds
12:53 PM 78.1 °F 66.9 °F 68% 30.04 in 10.0 mi SSE 10.4 mph - N/A   Mostly Cloudy
1:53 PM 79.0 °F 68.0 °F 69% 30.00 in 10.0 mi SSE 12.7 mph 18.4 mph N/A   Mostly Cloudy
2:53 PM 78.1 °F 66.9 °F 68% 29.99 in 10.0 mi SE 15.0 mph - N/A   Scattered Clouds
3:53 PM 78.1 °F 66.9 °F 68% 29.98 in 10.0 mi SSE 10.4 mph - N/A   Partly Cloudy
4:53 PM 77.0 °F 66.9 °F 71% 29.98 in 10.0 mi SSE 8.1 mph - N/A   Partly Cloudy
5:53 PM 75.0 °F 68.0 °F 79% 29.99 in 10.0 mi SSE 9.2 mph - N/A   Partly Cloudy
6:53 PM 73.9 °F 69.1 °F 85% 30.00 in 10.0 mi SSE 6.9 mph - N/A   Partly Cloudy
7:53 PM 73.0 °F 68.0 °F 84% 30.01 in 10.0 mi South 5.8 mph - N/A   Clear
8:53 PM 73.0 °F 69.1 °F 87% 30.03 in 10.0 mi South 6.9 mph - N/A   Clear
9:53 PM 72.0 °F 70.0 °F 93% 30.04 in 10.0 mi Calm Calm - N/A   Clear
10:53 PM 71.1 °F 69.1 °F 93% 30.04 in 10.0 mi Calm Calm - N/A   Clear
11:53 PM 70.0 °F 69.1 °F 97% 30.04 in 10.0 mi SW 3.5 mph - N/A   Partly Cloudy